Weather History for Altus AFB, OK

Change the Weather History Date:

Sunday, February 10, 2013

  Actual Average Record
Temperature  
Mean Temperature 49 °F -  
Max Temperature 62 °F 54 °F 26 °F (2014)
Min Temperature 36 °F 30 °F 19 °F (2014)
Degree Days  
Heating Degree Days 16    
Moisture  
Dew Point 27 °F    
Average Humidity 46    
Maximum Humidity 94    
Minimum Humidity 18    
Precipitation  
Precipitation 0.01 in - - ()
Sea Level Pressure  
Sea Level Pressure 29.82 in    
Wind  
Wind Speed 11 mph (WNW)    
Max Wind Speed 17 mph    
Max Gust Speed 17 mph    
Visibility 10 miles    
Events      
Averages and records for this station are not official NWS values.
T = Trace of Precipitation, MM = Missing Value Source: NWS Daily Summary

Daily Weather History Graph

Daily Weather History Graph

Search for Another Location

Airport:

Trip Planner

Search our weather history database for the weather conditions in past years. The results will help you decide how hot, cold, wet, or windy it might be!

Date:

Astronomy

Feb. 10, 2013 Rise Set
Actual Time 7:27 AM CST 6:15 PM CST
Civil Twilight 7:01 AM CST 6:41 PM CST
Nautical Twilight 6:31 AM CST 7:11 PM CST
Astronomical Twilight 6:02 AM CST 7:40 PM CST
Moon 7:21 AM CST (2/10) 7:03 PM CST (2/10)
Length of Visible Light 11h 40m
Length of Day
10h 48m
New Moon, 0% of the Moon is Illuminated
Feb 10
New Moon
Feb 17
First Quarter
Feb 25
Full
Mar 4
Last Quarter
Mar 11
New

Hourly Weather History & Observations

Time (CST) Temp. Windchill Dew Point Humidity Pressure Visibility Wind Dir Wind Speed Gust Speed Precip Events Conditions
12:08 AM 55.4 °F - 53.6 °F 94% 29.69 in 10.0 mi West 11.5 mph - N/A   Overcast
12:17 AM 55.4 °F - 50.0 °F 82% 29.70 in 10.0 mi West 11.5 mph - N/A   Overcast
12:55 AM 53.8 °F - 44.8 °F 72% 29.71 in 10.0 mi WSW 5.8 mph - 0.01 in   Overcast
1:55 AM 51.3 °F - 29.5 °F 43% 29.70 in 10.0 mi West 13.8 mph - N/A   Clear
2:55 AM 47.8 °F - 25.9 °F 42% 29.69 in 10.0 mi West 10.4 mph - N/A   Clear
3:55 AM 46.8 °F - 23.7 °F 40% 29.70 in 10.0 mi WSW 12.7 mph - N/A   Clear
4:55 AM 44.2 °F 37.6 °F 24.3 °F 45% 29.71 in 10.0 mi WSW 13.8 mph - N/A   Clear
5:55 AM 44.2 °F 37.0 °F 22.8 °F 43% 29.71 in 10.0 mi SW 16.1 mph - N/A   Clear
6:55 AM 39.7 °F 32.7 °F 24.3 °F 54% 29.75 in 10.0 mi SW 11.5 mph - N/A   Clear
7:55 AM 36.5 °F 28.2 °F 23.9 °F 60% 29.78 in 10.0 mi WSW 12.7 mph - N/A   Clear
8:55 AM 41.7 °F 35.2 °F 22.5 °F 46% 29.79 in 10.0 mi West 11.5 mph - N/A   Clear
9:55 AM 44.2 °F 38.8 °F 23.5 °F 44% 29.81 in 10.0 mi West 10.4 mph - N/A   Clear
10:55 AM 51.6 °F - 24.4 °F 35% 29.82 in 10.0 mi West 15.0 mph - N/A   Clear
11:55 AM 56.1 °F - 23.7 °F 29% 29.81 in 10.0 mi WNW 10.4 mph - N/A   Clear
12:55 PM 59.0 °F - 22.6 °F 25% 29.80 in 10.0 mi WNW 11.5 mph 17.3 mph N/A   Clear
1:55 PM 60.4 °F - 23.4 °F 24% 29.80 in 10.0 mi WNW 10.4 mph - N/A   Clear
2:55 PM 62.6 °F - 21.0 °F 20% 29.79 in 10.0 mi West 17.3 mph - N/A   Clear
3:55 PM 62.8 °F - 19.0 °F 19% 29.81 in 10.0 mi West 12.7 mph - N/A   Clear
4:55 PM 62.1 °F - 17.4 °F 18% 29.84 in 10.0 mi NW 10.4 mph - N/A   Clear
5:55 PM 57.7 °F - 23.9 °F 27% 29.88 in 10.0 mi NNW 6.9 mph - N/A   Clear
6:55 PM 45.5 °F 43.2 °F 24.4 °F 44% 29.93 in 10.0 mi NNE 4.6 mph - N/A   Clear
7:55 PM 37.8 °F 30.2 °F 24.8 °F 60% 29.97 in 10.0 mi North 11.5 mph - N/A   Clear
8:55 PM 38.5 °F 31.6 °F 25.3 °F 59% 29.99 in 10.0 mi NNE 10.4 mph - N/A   Clear
9:55 PM 38.7 °F 31.4 °F 25.2 °F 58% 30.01 in 10.0 mi NE 11.5 mph - N/A   Clear
10:55 PM 37.8 °F 30.2 °F 24.6 °F 59% 30.02 in 10.0 mi NNE 11.5 mph - N/A   Clear
11:55 PM 38.5 °F 29.9 °F 25.0 °F 58% 30.04 in 10.0 mi NE 15.0 mph - N/A   Clear